XBNTZ MMPR-MMGL

Flight info

Callsign XBNTZ
Flight time N/A
Altitude 5500
Route VFR DIRECT
Aircraft C172/L-SG/MODE C

Departure

Time 2026-04-22 02:05
Airport Puerto Vallarta International Airport (MMPR)

Arrival

Time N/A
Airport Guadalajara International Airport (MMGL)
Time Latitude Longitude Altitude Speed Heading
2026-04-22 01:47 20.67843 -105.25105 21 ft 0 kts 250°
2026-04-22 01:55 20.67837 -105.25118 21 ft 8 kts 238°
2026-04-22 01:55 20.67889 -105.25212 21 ft 25 kts 321°
2026-04-22 01:56 20.67995 -105.25182 22 ft 25 kts 50°
2026-04-22 01:56 20.68116 -105.25048 22 ft 25 kts 53°
2026-04-22 01:56 20.68227 -105.24899 23 ft 26 kts 43°
2026-04-22 01:56 20.68361 -105.24760 23 ft 28 kts 47°
2026-04-22 01:57 20.68488 -105.24607 24 ft 28 kts 48°
2026-04-22 01:57 20.68625 -105.24456 25 ft 29 kts 45°
2026-04-22 01:57 20.68757 -105.24299 26 ft 26 kts 47°
2026-04-22 01:57 20.68873 -105.24290 26 ft 7 kts 319°
2026-04-22 01:58 20.68874 -105.24291 26 ft 0 kts 317°
2026-04-22 02:04 20.68903 -105.24335 29 ft 15 kts 300°
2026-04-22 02:04 20.68863 -105.24469 27 ft 26 kts 243°
2026-04-22 02:05 20.68694 -105.24652 25 ft 54 kts 226°
2026-04-22 02:05 20.68372 -105.24994 175 ft 67 kts 226°
2026-04-22 02:05 20.68052 -105.25375 426 ft 70 kts 227°
2026-04-22 02:05 20.67708 -105.25731 726 ft 69 kts 221°
2026-04-22 02:06 20.67359 -105.26096 1056 ft 71 kts 237°
2026-04-22 02:06 20.67346 -105.26614 1336 ft 81 kts 296°
2026-04-22 02:06 20.67810 -105.26902 1617 ft 81 kts 357°
2026-04-22 02:06 20.68347 -105.26773 1847 ft 79 kts 20°
2026-04-22 02:07 20.68878 -105.26537 2026 ft 84 kts 26°
2026-04-22 02:07 20.69392 -105.26273 2267 ft 79 kts 24°
2026-04-22 02:07 20.69904 -105.25995 2466 ft 84 kts 34°
2026-04-22 02:07 20.70350 -105.25608 2720 ft 83 kts 48°
2026-04-22 02:08 20.70727 -105.25111 2887 ft 89 kts 52°
2026-04-22 02:08 20.71092 -105.24574 3114 ft 88 kts 58°
2026-04-22 02:08 20.71376 -105.23992 3285 ft 93 kts 65°
2026-04-22 02:08 20.71702 -105.23406 3514 ft 89 kts 62°
2026-04-22 02:09 20.72021 -105.22823 3674 ft 95 kts 52°
2026-04-22 02:09 20.72407 -105.22251 3874 ft 95 kts 67°
2026-04-22 02:09 20.72659 -105.21564 4009 ft 100 kts 73°
2026-04-22 02:09 20.72790 -105.20858 4207 ft 98 kts 85°
2026-04-22 02:10 20.72825 -105.20117 4355 ft 100 kts 94°
2026-04-22 02:10 20.72789 -105.19385 4522 ft 100 kts 96°
2026-04-22 02:10 20.72665 -105.18647 4666 ft 100 kts 102°
2026-04-22 02:10 20.72518 -105.17920 4789 ft 102 kts 104°
2026-04-22 02:11 20.72335 -105.17188 4915 ft 101 kts 107°
2026-04-22 02:11 20.72148 -105.16460 5020 ft 103 kts 106°